GW2905 Weather Reports


Display with metric or nautical units.
time (UTC)temp
F
wind
direction
speed
MPH
gust
MPH
rain 1hr
in
rain 24hr
in
rain mn
in
humidity
%
barometer
mb
20260831111600 57 0 0.0 4.0 0.00 0.00 0.00 79 1011.8
20260831104605 57 0 0.0 0.0 0.00 0.00 0.00 78 1011.9
20260831103113 57 0 0.0 1.0 0.00 0.00 0.00 78 1012.0
20260831101602 58 0 0.0 0.0 0.00 0.00 0.00 78 1012.1
20260831100106 58 0 0.0 0.0 0.00 0.00 0.00 78 1012.5
20260831094606 58 0 0.0 0.0 0.00 0.00 0.00 79 1012.6
20260831093112 58 0 0.0 0.0 0.00 0.00 0.00 78 1012.8
20260831091600 58 0 0.0 0.0 0.00 0.00 0.00 78 1013.1
20260831090109 58 0 0.0 0.0 0.00 0.00 0.00 79 1013.1
20260831084602 58 0 0.0 0.0 0.00 0.00 0.00 78 1013.1
20260831083105 59 0 0.0 0.0 0.00 0.00 0.00 78 1013.2
20260831081609 59 0 0.0 0.0 0.00 0.00 0.00 78 1013.5
20260831080108 59 0 0.0 8.0 0.00 0.00 0.00 77 1013.3
20260831074602 60 0 0.0 0.0 0.00 0.00 0.00 76 1013.4
20260831073105 60 0 0.0 0.0 0.00 0.00 0.00 76 1013.5
20260831071603 60 0 0.0 6.0 0.00 0.00 0.00 75 1013.6
20260831070105 60 0 0.0 0.0 0.00 0.00 0.00 75 1013.7
20260831064557 61 0 0.0 0.0 0.00 0.00 0.00 74 1014.0
20260831063105 61 0 0.0 0.0 0.00 0.00 0.00 73 1014.2
20260831061608 61 0 0.0 0.0 0.00 0.00 0.00 72 1014.2
20260831060105 62 0 0.0 0.0 0.00 0.00 0.00 72 1014.4
20260831054611 62 0 0.0 0.0 0.00 0.00 0.00 71 1014.6
20260831053102 62 0 0.0 0.0 0.00 0.00 0.00 71 1014.7
20260831051611 62 0 0.0 0.0 0.00 0.00 0.00 70 1015.0
20260831050107 62 0 0.0 0.0 0.00 0.00 0.00 70 1015.0
20260831044612 62 0 0.0 1.0 0.00 0.00 0.00 69 1015.2
20260831043101 62 0 0.0 9.0 0.00 0.00 0.00 69 1015.3
20260831041606 62 82 0.0 3.0 0.00 0.00 0.00 68 1015.3
20260831040107 63 0 0.0 5.0 0.00 0.00 0.00 68 1015.4
20260831034601 62 30 1.0 3.0 0.00 0.00 0.00 69 1015.3
20260831033056 62 0 0.0 4.0 0.00 0.00 0.00 69 1015.3
20260831031558 62 178 0.0 2.0 0.00 0.00 0.00 69 1015.3
20260831024600 64 0 0.0 2.0 0.00 0.00 0.00 66 1015.5
20260831023059 64 41 1.0 3.0 0.00 0.00 0.00 64 1015.6
20260831021606 64 0 0.0 1.0 0.00 0.00 0.00 65 1015.7
20260831020100 65 0 0.0 4.0 0.00 0.00 0.00 62 1015.8
20260831014603 66 16 1.0 5.0 0.00 0.00 0.00 60 1015.8
20260831013111 66 14 0.0 6.0 0.00 0.00 0.00 60 1016.0
20260831011603 67 0 1.0 9.0 0.00 0.00 0.00 58 1016.1
20260831010106 67 314 1.0 6.0 0.00 0.00 0.00 57 1016.3
20260831004604 68 0 1.0 4.0 0.00 0.00 0.00 56 1016.4
20260831003106 68 336 1.0 8.0 0.00 0.00 0.00 55 1016.6
20260831001608 69 0 1.0 5.0 0.00 0.00 0.00 54 1016.6
20260831000106 69 352 1.0 6.0 0.00 0.00 0.00 53 1016.8
20260830234607 70 313 1.0 8.0 0.00 0.00 0.00 54 1016.8
20260830233105 70 146 1.0 6.0 0.00 0.00 0.00 54 1017.1
20260830231603 71 93 1.0 7.0 0.00 0.00 0.00 52 1017.2
20260830224601 71 284 1.0 7.0 0.00 0.00 0.00 53 1017.6
20260830223113 70 59 2.0 5.0 0.00 0.00 0.00 53 1017.7
20260830221608 70 311 1.0 5.0 0.00 0.00 0.00 54 1017.8
20260830220105 69 46 1.0 7.0 0.00 0.00 0.00 53 1018.1
20260830214617 69 44 2.0 8.0 0.00 0.00 0.00 55 1018.3
20260830213106 69 238 1.0 6.0 0.00 0.00 0.00 54 1018.5
20260830211609 70 32 1.0 5.0 0.00 0.00 0.00 53 1018.7
20260830210118 68 163 2.0 5.0 0.00 0.00 0.00 55 1018.9
20260830204605 69 16 2.0 7.0 0.00 0.00 0.00 54 1019.0
20260830203104 67 0 2.0 6.0 0.00 0.00 0.00 57 1019.1
20260830201616 67 0 1.0 6.0 0.00 0.00 0.00 59 1019.4
20260830200105 66 260 1.0 4.0 0.00 0.00 0.00 58 1019.5
20260830194603 67 336 1.0 7.0 0.00 0.00 0.00 56 1019.4
20260830193103 65 338 2.0 7.0 0.00 0.00 0.00 61 1019.8
20260830191601 64 276 1.0 5.0 0.00 0.00 0.00 63 1019.9
20260830190140 63 0 0.0 4.0 0.00 0.00 0.00 65 1019.8
20260830184612 62 0 0.0 8.0 0.00 0.00 0.00 65 1019.9
20260830183114 63 0 2.0 11.0 0.00 0.00 0.00 63 1020.0
20260830181606 64 162 1.0 4.0 0.00 0.00 0.00 63 1019.9
20260830180112 63 165 1.0 4.0 0.00 0.00 0.00 64 1019.9
20260830174610 62 156 1.0 3.0 0.00 0.00 0.00 67 1019.8
20260830173101 60 204 0.0 3.0 0.00 0.00 0.00 75 1019.9
20260830171607 57 155 0.0 3.0 0.00 0.00 0.00 80 1020.1
20260830164609 57 174 0.0 3.0 0.00 0.00 0.00 82 1020.0
20260830163108 56 0 0.0 2.0 0.00 0.00 0.00 83 1020.1
20260830161604 57 0 0.0 2.0 0.00 0.00 0.00 82 1020.2
20260830160106 56 155 0.0 3.0 0.00 0.00 0.00 83 1020.4
20260830154603 54 0 0.0 2.0 0.00 0.00 0.00 86 1020.3
20260830153058 53 0 0.0 2.0 0.00 0.00 0.00 88 1020.3
20260830151611 52 0 0.0 2.0 0.00 0.00 0.00 90 1020.3
20260830150106 51 0 0.0 0.0 0.00 0.00 0.00 91 1020.4
20260830144600 51 0 0.0 0.0 0.00 0.00 0.00 91 1020.4
20260830143108 50 0 0.0 1.0 0.00 0.00 0.00 92 1020.2
20260830141609 50 0 0.0 0.0 0.00 0.00 0.00 92 1020.2
20260830140105 49 0 0.0 0.0 0.00 0.00 0.00 92 1020.2
20260830134602 49 0 0.0 1.0 0.00 0.01 0.00 91 1020.1
20260830133059 49 0 0.0 0.0 0.00 0.01 0.00 91 1020.1
20260830131559 50 0 0.0 1.0 0.00 0.01 0.00 90 1020.1
20260830130106 50 0 0.0 1.0 0.00 0.01 0.00 90 1020.1
20260830124603 51 0 0.0 0.0 0.00 0.01 0.00 90 1020.1
20260830123100 51 0 0.0 0.0 0.00 0.01 0.00 90 1020.1
20260830121604 50 0 0.0 0.0 0.00 0.01 0.00 90 1019.7
20260830120104 50 0 0.0 1.0 0.00 0.01 0.00 89 1019.8
20260830114601 50 22 0.0 0.0 0.00 0.01 0.00 89 1019.9
20260830113102 51 0 0.0 1.0 0.00 0.01 0.00 89 1019.9